Regional Weather Roundup
Issued by NWS Spokane, WA

Home | Current Version | Previous Version | Text Only | Print | Product List | Glossary On
Versions: 1 2 3 4 5 6 7 8 9 10 11 12 13 14 15 16 17 18 19 20 21 22 23 24 25 26 27 28 29 30 31 32 33 34 35 36 37 38 39 40 41 42 43 44 45 46 47 48 49 50
415
NZUS01 KOTX 232225
RWROTX

Eastern Washington/Northern Idaho Roundup
National Weather Service, Spokane WA
300 PM PDT TUE MAY 23 2017

Note: "fair" indicated few or no clouds below 12,000 feet with no
significant weather and/or obstructions to visibility.

...Northeast Washington and Northern Idaho Panhandle...

CITY           SKY/WX    TMP DP  RH WIND       PRES   REMARKS
Spokane Intl   MOSUNNY   80  45  28 SW15      29.90F
Spokane Downto SUNNY     84  47  27 S9G18     29.88F
Coeur d Alene  SUNNY     82  50  32 W15G22    29.89F
Deer Park      SUNNY     82  46  28 S14G23    29.88F
Sandpoint      SUNNY     81  43  26 SW9       29.85F
Bonners Ferry  FAIR      81  46  30 S8G17     29.83F

...Southeast Washington and southern Idaho Panhandle...

CITY           SKY/WX    TMP DP  RH WIND       PRES   REMARKS
Walla Walla    SUNNY     89  46  22 SW6       29.87F
Pullman/Moscow SUNNY     78  50  37 W8        29.96F
Lewiston       SUNNY     87  51  28 VRB6      29.88F
Lowell           N/A     91  46  21 CALM      29.86F
Grangeville    FAIR      81  50  34 SW13      29.96F

...Columbia Basin...

CITY           SKY/WX    TMP DP  RH WIND       PRES   REMARKS
Ephrata        SUNNY     91  44  19 S18G25    29.81F
Moses Lake     SUNNY     91  44  19 SW16G22   29.82F
Pasco          SUNNY     93  43  17 W8        29.82F
Richland       CLEAR     95  44  17 S13G39    29.80F HX  91
Hermiston      SUNNY     92  45  19 W10       29.83F
Pendleton      SUNNY     86  52  30 NW8       29.88F

...East Slopes Cascades...

CITY           SKY/WX    TMP DP  RH WIND       PRES   REMARKS
The Dalles     SUNNY     93  46  19 NW20G29   29.84F
Yakima         SUNNY     92  49  22 SE6       29.83F
Ellensburg     SUNNY     89  46  22 NW14G20   29.86F
Stampede Pass  SUNNY     67  37  33 W12G32    30.04F
Wenatchee      SUNNY     88  43  20 VRB5      29.80F
Omak           SUNNY     86  47  25 S12       29.77F
Chelan           N/A     88  34  14 S24         N/A
Sunnyside      CLEAR     88  51  27 SE9       29.80F

...Southern British Columbia...

CITY           SKY/WX    TMP DP  RH WIND       PRES   REMARKS
Penticton      MOSUNNY   82  54  36 S17G24    29.70F
Castlegar      MOSUNNY   86  48  26 SW13G21   29.75F
Cranbrook      PTSUNNY   79  45  29 S7        29.81F
Osoyoos          N/A     86  48  26 S14G22      N/A
Creston          N/A     81  45  28 SE9G17      N/A

...Western Montana...

CITY           SKY/WX    TMP DP  RH WIND       PRES   REMARKS
Kalispell      CLEAR     79  48  33 S18G26    29.86F
Missoula       SUNNY     81  45  28 VRB3      29.93F

...Neighboring Cities...

CITY           SKY/WX    TMP DP  RH WIND       PRES   REMARKS
Seattle        MOSUNNY   77  53  43 S12       29.97F
Portland       MOSUNNY   83  46  27 N9G18     29.98S
Boise          SUNNY     84  40  21 VRB6      30.01F
Great Falls    SUNNY     79  44  28 SW12      29.89F
Calgary        PTSUNNY   79  37  22 SW9G18    29.70F



USA.gov is the U.S. government's official web portal to all federal, state and local government web resources and services.